Total_Precipitation_Accumulation
0.83 0.94 0.94 0.91 0.92 0.88 1.03 1.19 1.29 1.24 1.29 1.31 1.21 1.18 1.21 1.25 1.19 1.03 0.88 0.84 0.75 0.67 0.64 0.60 0.59 0.61 0.66 0.71 0.78 0.85 0.94 1.11 1.28 1.43 1.65 1.96 2.31 2.64
1.05 1.07 1.05 1.04 1.12 1.04 1.11 1.22 1.30 1.40 1.41 1.20 1.10 1.07 1.05 0.92 0.91 0.87 0.82 0.90 0.81 0.69 0.62 0.59 0.57 0.57 0.57 0.59 0.62 0.65 0.69 0.73 0.78 0.83 0.93 1.11 1.34 1.67
1.39 1.35 1.36 1.39 1.37 1.30 1.33 1.32 1.30 1.42 1.40 1.14 1.19 1.23 1.12 0.96 0.86 0.82 0.78 0.83 0.82 0.82 0.71 0.62 0.54 0.49 0.49 0.51 0.54 0.59 0.61 0.64 0.67 0.68 0.67 0.69 0.72 0.83
1.50 1.70 1.69 1.63 1.53 1.39 1.44 1.38 1.35 1.52 1.47 1.34 1.40 1.42 1.36 1.17 1.05 0.93 0.77 0.74 0.79 0.88 0.77 0.69 0.63 0.57 0.52 0.52 0.53 0.53 0.53 0.53 0.54 0.54 0.52 0.50 0.50 0.52
1.53 1.64 1.72 1.82 1.68 1.55 1.49 1.44 1.47 1.57 1.64 1.54 1.53 1.64 1.61 1.37 1.19 0.96 0.77 0.80 0.75 0.86 0.83 0.76 0.74 0.70 0.65 0.60 0.56 0.53 0.50 0.48 0.48 0.49 0.48 0.48 0.46 0.44
1.53 1.48 1.58 1.83 1.90 1.84 1.67 1.59 1.61 1.69 1.73 1.72 1.70 1.78 1.80 1.70 1.50 1.21 1.04 0.96 0.85 0.82 0.89 0.82 0.77 0.73 0.68 0.61 0.57 0.55 0.55 0.54 0.52 0.51 0.51 0.49 0.46 0.44
1.35 1.27 1.26 1.45 1.67 1.78 1.64 1.59 1.62 1.63 1.66 1.73 1.76 1.80 1.82 1.88 1.73 1.45 1.25 1.14 0.98 0.85 0.88 0.83 0.78 0.72 0.71 0.71 0.66 0.60 0.56 0.53 0.50 0.49 0.47 0.47 0.43 0.40
1.25 1.22 1.11 1.05 1.10 1.27 1.43 1.56 1.66 1.59 1.55 1.66 1.79 1.82 1.81 1.83 1.83 1.68 1.45 1.26 1.11 0.97 1.02 1.03 0.98 0.92 0.77 0.67 0.66 0.58 0.52 0.49 0.48 0.44 0.40 0.38 0.37 0.36
1.15 1.14 0.97 0.88 0.97 0.96 1.11 1.24 1.36 1.43 1.42 1.51 1.62 1.72 1.84 1.97 1.99 1.81 1.62 1.46 1.26 1.11 1.10 1.02 0.95 0.95 0.86 0.75 0.75 0.61 0.52 0.47 0.42 0.40 0.39 0.37 0.36 0.37
1.12 1.12 1.08 1.02 0.99 1.02 1.04 1.05 1.06 1.12 1.20 1.23 1.35 1.53 1.73 1.92 2.07 1.97 1.83 1.55 1.32 1.17 1.12 0.98 0.82 0.77 0.73 0.72 0.73 0.64 0.53 0.47 0.41 0.37 0.37 0.38 0.35 0.35
1.19 1.19 1.19 1.12 1.19 1.05 0.98 1.00 1.01 1.04 1.08 1.12 1.15 1.30 1.55 1.73 1.81 1.84 1.75 1.56 1.32 1.13 1.05 1.01 0.83 0.74 0.70 0.62 0.60 0.63 0.55 0.50 0.47 0.41 0.37 0.37 0.39 0.37
1.27 1.26 1.20 1.08 1.05 0.92 0.86 0.93 0.93 0.94 0.99 1.00 1.01 1.02 1.09 1.37 1.64 1.48 1.41 1.38 1.24 1.03 0.83 0.88 0.87 0.85 0.78 0.59 0.51 0.52 0.49 0.48 0.50 0.48 0.43 0.38 0.40 0.36
1.27 1.22 1.19 1.09 0.86 0.79 0.76 0.80 0.84 0.87 0.97 0.99 0.95 0.96 1.02 1.13 1.30 1.34 1.27 1.20 1.16 0.96 0.79 0.78 0.77 0.79 0.74 0.58 0.46 0.43 0.43 0.41 0.41 0.48 0.52 0.51 0.45 0.39
1.24 1.25 1.26 1.11 0.85 0.73 0.62 0.59 0.56 0.53 0.64 0.77 0.83 0.86 0.89 0.97 1.09 1.21 1.24 1.20 1.09 0.98 0.90 0.87 0.75 0.69 0.64 0.54 0.45 0.39 0.40 0.42 0.42 0.39 0.43 0.56 0.54 0.50
1.10 1.25 1.17 0.98 0.81 0.67 0.59 0.54 0.49 0.45 0.55 0.66 0.73 0.76 0.77 0.83 1.05 1.31 1.45 1.47 1.36 1.13 1.01 0.96 0.88 0.77 0.74 0.62 0.49 0.43 0.40 0.40 0.39 0.42 0.42 0.46 0.51 0.50
0.94 1.02 1.04 1.02 0.96 0.88 0.76 0.63 0.53 0.53 0.59 0.66 0.77 0.88 0.96 1.03 1.12 1.26 1.44 1.49 1.47 1.28 1.08 1.03 0.97 0.96 0.86 0.69 0.62 0.54 0.46 0.40 0.38 0.41 0.47 0.46 0.52 0.59
0.91 0.98 1.00 1.07 1.10 1.10 1.04 0.93 0.85 0.81 0.76 0.76 0.89 1.01 1.05 1.08 1.12 1.21 1.35 1.38 1.28 1.17 1.03 0.95 0.99 0.99 0.94 0.85 0.72 0.57 0.49 0.42 0.40 0.44 0.55 0.55 0.52 0.55
0.79 0.93 1.07 1.17 1.24 1.26 1.24 1.14 1.02 0.93 0.86 0.87 0.93 1.02 1.06 1.07 1.10 1.21 1.32 1.32 1.20 1.08 1.04 0.90 0.91 1.02 0.99 0.87 0.71 0.62 0.55 0.48 0.45 0.51 0.58 0.60 0.55 0.50
0.63 0.80 0.97 1.07 1.17 1.19 1.19 1.12 1.06 1.00 0.98 1.00 1.06 1.10 1.14 1.14 1.15 1.16 1.24 1.28 1.19 1.09 1.06 1.04 0.96 0.95 0.90 0.70 0.53 0.51 0.56 0.53 0.56 0.58 0.59 0.58 0.52 0.48
0.51 0.63 0.76 0.89 1.02 1.15 1.22 1.18 1.15 1.13 1.06 1.03 1.11 1.13 1.15 1.18 1.16 1.11 1.15 1.22 1.20 1.14 1.08 1.02 0.96 0.86 0.78 0.71 0.58 0.50 0.50 0.59 0.65 0.64 0.61 0.63 0.60 0.59
0.54 0.58 0.64 0.75 0.92 1.10 1.20 1.25 1.25 1.18 1.07 1.05 1.07 1.11 1.11 1.15 1.13 1.07 1.11 1.21 1.22 1.16 1.01 0.84 0.77 0.88 0.96 1.01 0.86 0.58 0.51 0.57 0.68 0.75 0.78 0.81 0.75 0.72
0.62 0.63 0.65 0.74 0.89 1.07 1.17 1.21 1.25 1.19 1.13 1.10 1.08 1.12 1.13 1.15 1.13 1.08 1.09 1.15 1.13 1.09 1.00 0.95 1.05 1.20 1.24 1.12 0.87 0.71 0.67 0.68 0.73 0.78 0.80 0.81 0.82 0.76
0.72 0.68 0.67 0.73 0.85 0.99 1.08 1.13 1.18 1.17 1.11 1.10 1.08 1.10 1.14 1.14 1.19 1.19 1.13 1.15 1.16 1.19 1.26 1.23 1.22 1.24 1.23 1.16 1.04 0.92 0.83 0.78 0.79 0.79 0.72 0.70 0.67 0.65